Search : Mkt:

Z Scale Model Trains Database

Engines, Rolling Stock, Structures, and Accessories

Noch Sample Layout

Z-Scale Model Trains

Z-Scale is a dimensional relationships of 1/220. All share in common a railroad gauge of 6.5mm (0.256 in). Z-Scale Train Modeling is a hobby concerned with the recreation, display and operation of railway equipment in miniature. Z-Scale is sometimes also referred to as Z-Gauge. Z scale (1:220) was introduced by the Märklin company in 1972, and is one of the smallest commercially available model railway scales.

Z scale trains operate on 0-10 volts direct current and offer the same operating characteristics as all other two-rail, direct-current, analog model railways. Locomotives can be fitted with digital decoders for independent control. Model trains, track, structures, and human/animal figures are readily available in European, North American, and Japanese styles from a variety of manufacturers. Originally running on 8 Volts DC, track voltage was increased to 10 Volts DC around the year 2000. Accessory power has always been 10 Volts AC.

Body Style:
Brand:
Manufacturer:
Road or Company Name:
Series Name:
Model Type:
Total items in collection: 1625. Total items on page 66

First Image Brand Stock Number Road or Company Name Reporting Marks Road or Reporting Number Prototype Original Retail Price Market Release Date ID
Micro-Trains 13101 Pennsylvania 342610 Gondola, 50 Foot, Steel 2001-07-01 159905
Micro-Trains 13102 New York Central NYC 715106 Gondola, 50 Foot, Steel 2001-09-01 159907
Micro-Trains 13103 Santa's Coal MTL 2001 Gondola, 50 Foot, Steel 2001-11-01 159910
Micro-Trains 13104 Santa Fe ATSF 208522 Gondola, 50 Foot, Steel 2001-12-01 159911
Micro-Trains 13105 Western Pacific WP 6610 Gondola, 50 Foot, Steel 2002-04-01 159914
Micro-Trains 13107 Lehigh Valley LV 37048 Gondola, 50 Foot, Steel 2003-04-01 159964
Micro-Trains 13201 Western Maryland WM 51302 Gondola, 50 Foot, Steel 2002-01-01 159912
Micro-Trains 522 00 010 Pennsylvania 342615 Gondola, 50 Foot, Steel 2012-12-01 162390
Micro-Trains 522 00 090 Delaware & Hudson D&H 13292 Gondola, 50 Foot, Steel 2005-02-01 160051
Micro-Trains 522 00 100 Rio Grande D&RGW 56379 Gondola, 50 Foot, Steel 2005-03-01 160059
Micro-Trains 522 00 120 Seaboard Coast Line SCL 698045 Gondola, 50 Foot, Steel 2006-03-01 160179
Micro-Trains 522 00 130 Chessie System B&O 363113 Gondola, 50 Foot, Steel 2007-07-01 160273
Micro-Trains 522 00 140 Canadian National CN 543722 Gondola, 50 Foot, Steel 2007-04-01 160261
Micro-Trains 522 00 151 Grand Trunk Western GTW 146015 Gondola, 50 Foot, Steel 2008-02-01 160332
Micro-Trains 522 00 152 Grand Trunk Western GTW 146021 Gondola, 50 Foot, Steel 2008-02-01 160333
Micro-Trains 522 00 161 Burlington Route CB&Q 82044 Gondola, 50 Foot, Steel 2008-05-01 160352
Micro-Trains 522 00 161 Burlington Route CB&Q 82044 Gondola, 50 Foot, Steel $23.50 2008-05-01 144075
Micro-Trains 522 00 162 Burlington Route CB&Q 82182 Gondola, 50 Foot, Steel 2008-05-01 160353
Micro-Trains 522 00 162 Burlington Route CB&Q 82182 Gondola, 50 Foot, Steel $23.50 2008-05-01 144074
Micro-Trains 522 00 171 Erie Lackawanna EL 17030 Gondola, 50 Foot, Steel $21.10 2008-09-01 157867
Micro-Trains 522 00 171 Erie Lackawanna EL 17030 Gondola, 50 Foot, Steel 2008-09-01 160387
Micro-Trains 522 00 172 Erie Lackawanna EL 17051 Gondola, 50 Foot, Steel $21.10 2008-09-01 157868
Micro-Trains 522 00 172 Erie Lackawanna EL 17051 Gondola, 50 Foot, Steel 2008-09-01 160388
Micro-Trains 522 00 181 Chesapeake & Ohio C&O 31630 Gondola, 50 Foot, Steel 2009-02-01 160489
Micro-Trains 522 00 181 Chesapeake & Ohio C&O 31630 Gondola, 50 Foot, Steel $23.40 2009-02-01 144450
Micro-Trains 522 00 182 Chesapeake & Ohio C&O 31636 Gondola, 50 Foot, Steel 2009-02-01 160490
Micro-Trains 522 00 182 Chesapeake & Ohio C&O 31636 Gondola, 50 Foot, Steel $23.40 2009-02-01 144451
Micro-Trains 522 00 191 CSX Transportation CSXT 497105 Gondola, 50 Foot, Steel $25.40 2009-04-01 160527
Micro-Trains 522 00 191 CSX Transportation CSXT 497105 Gondola, 50 Foot, Steel $25.40 2009-04-01 157869
Micro-Trains 522 00 192 CSX Transportation CSXT 497107 Gondola, 50 Foot, Steel $25.40 2009-04-01 160528
Micro-Trains 522 00 192 CSX Transportation CSXT 497107 Gondola, 50 Foot, Steel $25.40 2009-04-01 160529
Micro-Trains 522 00 192 CSX Transportation CSXT 497107 Gondola, 50 Foot, Steel $25.40 2009-04-01 157870
Micro-Trains 522 00 201 Norfolk Southern NS 191337 Gondola, 50 Foot, Steel $22.60 2009-05-01 160545
Micro-Trains 522 00 202 Norfolk Southern NS 191339 Gondola, 50 Foot, Steel $22.60 2009-05-01 160546
Micro-Trains 522 00 211 Lehigh Valley LV 33354 Gondola, 50 Foot, Steel $23.40 2009-10-01 160756
Micro-Trains 522 00 212 Lehigh Valley LV 33452 Gondola, 50 Foot, Steel $23.40 2009-10-01 160757
Micro-Trains 522 00 220 Delaware & Hudson D&H 13886 Gondola, 50 Foot, Steel 2012-12-01 162391
Micro-Trains 522 00 231 Santa Fe ATSF 75043 Gondola, 50 Foot, Steel 2013-01-01 162414
Micro-Trains 522 00 232 Santa Fe ATSF 75046 Gondola, 50 Foot, Steel 2013-01-01 162415
Micro-Trains 522 00 461 Great Northern GN 72820 Gondola, 50 Foot, Steel 2013-03-01 162432
Micro-Trains 522 00 462 Great Northern GN 72845 Gondola, 50 Foot, Steel 2013-03-01 162433
Micro-Trains 522 44 160 Burlington Route CB&Q 82044 Gondola, 50 Foot, Steel $29.50 2009-07-01 149623
Micro-Trains 522 44 190 CSX Transportation CSXT 497107 Gondola, 50 Foot, Steel 2011-08-01 161609
Micro-Trains 522 44 460 Great Northern GN 72845 Gondola, 50 Foot, Steel 2014-05-01 162834
Micro-Trains 523 00 020 Pennsylvania 352819 Gondola, 50 Foot, Steel 2005-07-01 160075
Micro-Trains 523 00 020 Pennsylvania 352819 Gondola, 50 Foot, Steel $14.10 2005-07-01 154443
Micro-Trains 523 00 030 Southern Pacific SP 94230 Gondola, 50 Foot, Steel 2006-10-01 160212
Micro-Trains 523 00 041 Santa Fe ATSF 176207 Gondola, 50 Foot, Steel 2008-08-01 160377
Micro-Trains 523 00 042 Santa Fe ATSF 176226 Gondola, 50 Foot, Steel 2008-08-01 160378
Micro-Trains 523 00 051 Milwaukee Road MILW 81087 Gondola, 50 Foot, Steel 2008-10-01 160395
Micro-Trains 523 00 051 Milwaukee Road MILWE 81087 Gondola, 50 Foot, Steel $17.90 2008-10-01 157872
Micro-Trains 523 00 052 Milwaukee Road MILW 81119 Gondola, 50 Foot, Steel 2008-10-01 160396
Micro-Trains 523 00 052 Milwaukee Road MILWE 81119 Gondola, 50 Foot, Steel $17.90 2008-10-01 157873
Micro-Trains 994 00 004 Rio Grande D&RGW 56376 Gondola, 50 Foot, Steel 2009-04-01 160534
Micro-Trains 994 00 029 Western Pacific WP 4-Pack Gondola, 50 Foot, Steel 2011-05-01 161406
Micro-Trains 994 00 042 Pennsylvania PRR 352811 Gondola, 50 Foot, Steel 2012-06-01 162083
Micro-Trains 994 00 048 Canadian Pacific CP 4-Pack Gondola, 50 Foot, Steel 2012-12-01 162394
Micro-Trains 994 00 062 CSX Transportation CSXT 4-Pack Gondola, 50 Foot, Steel 2014-02-01 162662
Micro-Trains 994 01 060 White City Terminal WCTR 17010 Gondola, 50 Foot, Steel 2010-06-01 161105
Micro-Trains 994 01 090 Delaware & Hudson D&H 13886 Gondola, 50 Foot, Steel 2013-11-01 162635
Micro-Trains 994 01 140 Amtrak AMTK 13223 Gondola, 50 Foot, Steel 2009-04-01 160538
Micro-Trains 994 01 140 Amtrak AMTK 13267 Gondola, 50 Foot, Steel 2009-04-01 160539
Micro-Trains 994 05 090 New York Central NYC 4-pack 313505 Gondola, 50 Foot, Steel 2011-10-01 161641
Micro-Trains 994 05 100 Western Pacific 4-Pack Gondola, 50 Foot, Steel 2011-11-01 161882
Micro-Trains 994 21 030 Micro-Trains Line SPC 121 Gondola, 50 Foot, Steel 2011-10-01 161636
Micro-Trains 994 21 040 Tree Trimming Express TTX 122 Gondola, 50 Foot, Steel 2012-10-01 162283